This demonstration page uses our WeatherBlox Daily Observations layout. Learn more.

Left ArrowRight Arrow

41.86663, -103.66717

Hourly Observations for June 4, 2020

Temp ( °F °C ) Dew Point ( °F °C ) Humidity (%) Winds ( mph kmh ) Pressure ( in mb ) Visibility ( mi km ) Precip ( " mm )
12:53 am 00:53 Clear 57 13.9 50 10 78 78 undefined N/A 29.79 1009 10 16 0.00 0.00
1:53 am 01:53 Clear 58 14.4 49 9.4 72 72 undefined N/A 29.78 1008 10 16 0.00 0.00
2:53 am 02:53 Clear 53 11.7 48 8.9 83 83 undefined N/A 29.78 1008 10 16 0.00 0.00
3:53 am 03:53 Clear 52 11.1 48 8.9 86 86 undefined N/A 29.77 1008 10 16 0.00 0.00
4:53 am 04:53 Clear 52 11.1 48 8.9 86 86 Calm 29.77 1008 10 16 0.00 0.00
5:53 am 05:53 Sunny 53 11.7 48 8.9 83 83 N 3 6 29.77 1008 10 16 0.00 0.00
6:53 am 06:53 Sunny 59 15 50 10 72 72 W 3 6 29.78 1008 10 16 0.00 0.00
7:53 am 07:53 Sunny 68 20 50 10 53 53 NW 7 11 29.76 1008 10 16 0.00 0.00
8:53 am 08:53 Sunny 73 22.8 48 8.9 41 41 NNW 6 9 29.78 1008 10 16 0.00 0.00
9:53 am 09:53 Sunny 77 25 45 7.2 32 32 NW 7 11 29.78 1009 10 16 0.00 0.00
10:53 am 10:53 Sunny 84 28.9 43 6.1 24 24 VRB 6 9 29.75 1008 10 16 0.00 0.00
11:53 am 11:53 Sunny 88 31.1 44 6.7 22 22 VRB 5 7 29.72 1007 10 16 0.00 0.00
12:53 pm 12:53 Sunny 90 32.2 45 7.2 21 21 S 3 6 29.69 1006 10 16 0.00 0.00
1:53 pm 13:53 Mostly Sunny 93 33.9 42 5.6 17 17 W 5 7 29.65 1004 10 16 0.00 0.00
2:53 pm 14:53 Sunny 96 35.6 39 3.9 14 14 WSW 23 37 29.62 1003 10 16 0.00 0.00
3:53 pm 15:53 Sunny 96 35.6 35 1.7 12 12 W 20 31 29.62 1003 10 16 0.00 0.00
4:32 pm 16:32 Sunny 94 34.4 45 7.2 18 18 NNW 18 30 29.39 995 10 16 0.00 0.00
4:53 pm 16:53 Sunny 93 33.9 41 5 16 16 N 18 30 29.64 1004 10 16 0.00 0.00
5:53 pm 17:53 Sunny 89 31.7 52 11.1 28 28 ENE 14 22 29.65 1004 10 16 0.00 0.00
6:53 pm 18:53 Sunny 81 27.2 53 11.7 38 38 ENE 13 20 29.68 1005 10 16 0.00 0.00
7:53 pm 19:53 Sunny 77 25 52 11.1 42 42 ESE 6 9 29.67 1005 10 16 0.00 0.00
8:53 pm 20:53 Clear 70 21.1 53 11.7 55 55 Calm 29.68 1005 10 16 0.00 0.00
9:53 pm 21:53 Clear 64 17.8 52 11.1 65 65 undefined N/A 29.72 1006 10 16 0.00 0.00
10:53 pm 22:53 Clear 63 17.2 52 11.1 68 68 NE 7 11 29.73 1007 10 16 0.00 0.00
11:53 pm 23:53 Clear 66 18.9 52 11.1 61 61 NE 9 15 29.74 1007 10 16 0.00 0.00

Powered by AerisWeather